[[{"header":{"parameterUnit":"m.s-1","parameterCategory":1,"la1":30.2991,"la2":30.254,"lo1":-89.0895,"lo2":-89.0444,"dx":0.0017,"dy":0.0017,"nx":28,"ny":28,"refTime":"2023-01-20T09:00:00:Z","depth":0,"parameterNumber":2,"parameterNumberName":"U-component_of_WINDS"},"data":[0,0,0,0,0,0,0,0,0,0,0,0,0,0,0,0,0,0,0,0,0,0,0,0,0,0,0,0,0,0,0,0,0,0,0,0,0,0,0,0,0,0,0,0,0,0,0,0,0,0,0,0,0,0,0,0,0,0,1.3198,1.3199,0,1.3233,1.3234,1.3234,1.3231,1.323,1.323,1.3229,1.3264,1.3266,1.3267,0,0,0,0,0,0,0,0,0,0,0,0,0,1.3129,1.3131,1.3198,1.3199,1.3199,1.3233,1.3234,1.3234,1.3231,1.323,1.323,1.3229,1.3264,1.3266,1.3267,0,0,0,0,0,0,0,0,0,0,0,0,0,1.3161,1.3131,1.3198,1.3202,1.3202,1.3233,1.3234,1.3234,1.3231,1.323,1.3229,1.3229,1.3263,1.3266,1.3268,1.3297,0,0,1.3274,1.3275,0,0,0,0,0,0,0,0,1.3159,1.3164,1.3201,1.3201,1.3202,1.3227,1.3222,1.3255,1.3231,1.322,1.3229,1.3228,1.3253,1.3256,1.3264,1.3299,1.33,1.3274,1.3276,1.3277,1.3277,0,0,0,0,0,0,0,1.3157,1.3162,1.3212,1.3201,1.3202,1.3202,1.3205,1.3229,1.324,1.3221,1.3221,1.3225,1.3253,1.3262,1.3265,1.3301,1.3274,1.3276,1.3278,1.3278,1.3363,1.3364,0,0,0,0,0,0,1.3154,1.316,1.3211,1.3213,1.3178,1.3204,1.3208,1.322,1.324,1.3242,1.3226,1.3225,1.3259,1.3262,1.3266,1.3303,1.3277,1.3279,1.328,1.3362,1.3364,1.3365,0,0,0,0,0,0,1.3153,1.3159,1.3209,1.3187,1.3193,1.3206,1.3219,1.3221,1.323,1.3244,1.3246,1.3233,1.3258,1.3263,1.329,1.3304,1.328,1.3282,1.3361,1.3363,1.3364,1.3376,0,0,0,0,0,0,1.3151,1.3158,1.3169,1.3187,1.3194,1.3233,1.322,1.3222,1.3234,1.3233,1.3251,1.3253,1.3258,1.3287,1.3292,1.3306,1.3283,1.336,1.3362,1.3364,1.3374,1.3377,1.338,0,0,0,0,0,1.3148,1.3171,1.317,1.3176,1.3208,1.3233,1.3238,1.3243,1.3235,1.3246,1.3255,1.3252,1.3302,1.3289,1.3295,1.3311,1.3359,1.3361,1.3364,1.3373,1.3377,1.338,0,0,0,0,0,0,1.3153,1.3173,1.3172,1.3201,1.3216,1.3233,1.3247,1.3247,1.3264,1.3262,1.3268,1.3272,1.3299,1.3308,1.3294,1.3341,1.3329,1.3333,1.3334,1.3338,1.3341,1.3339,1.3285,0,0,0,0,0,1.3158,1.3176,1.3193,1.3216,1.3224,1.3234,1.3245,1.3248,1.3264,1.327,1.3281,1.3296,1.3315,1.3327,1.3345,1.3376,1.338,1.3389,1.3392,1.3395,1.3398,1.3416,1.342,1.3372,1.3372,1.3372,0,0,1.3167,1.318,1.3191,1.3218,1.3229,1.3249,1.3239,1.326,1.3275,1.3273,1.3299,1.3308,1.3325,1.3355,1.3368,1.3362,1.3412,1.3398,1.3399,1.3401,1.3418,1.3423,1.3427,1.3373,1.3373,1.3373,0,0,1.3194,1.3206,1.3227,1.324,1.3258,1.3265,1.327,1.3288,1.3294,1.3321,1.332,1.3338,1.337,1.3383,1.3394,1.3428,1.3426,1.3434,1.3449,1.3467,1.3471,1.3474,1.3487,1.3491,1.3437,1.3437,1.3437,0,1.3203,1.3233,1.3239,1.326,1.3272,1.3272,1.3294,1.3306,1.3329,1.3338,1.3331,1.3373,1.3384,1.3417,1.3426,1.3434,1.3441,1.3431,1.347,1.3473,1.3476,1.3489,1.3494,1.3437,1.3437,1.3437,1.3437,0,1.3244,1.3264,1.3279,1.3303,1.3316,1.3338,1.3348,1.3361,1.3364,1.3372,1.34,1.3414,1.3435,1.3443,1.3445,1.3477,1.3473,1.3468,1.3457,1.3482,1.3494,1.3498,1.3439,1.3438,1.3438,1.3438,0,0,1.3273,1.3301,1.3306,1.3317,1.3339,1.3355,1.3377,1.3399,1.341,1.3427,1.3446,1.3474,1.3471,1.3483,1.3486,1.3502,1.3529,1.3495,1.3496,1.3501,1.3566,1.357,1.3575,1.3529,1.353,1.353,1.3565,0,1.3303,1.3342,1.3349,1.3384,1.3403,1.3405,1.3424,1.344,1.3448,1.3467,1.3476,1.3496,1.3489,1.3497,1.3512,1.3523,1.3542,1.352,1.3547,1.3548,1.3543,1.3581,1.3585,1.3617,1.357,1.357,1.3571,0,1.3342,1.336,1.3397,1.3417,1.3426,1.3443,1.3464,1.3482,1.3499,1.3505,1.352,1.3522,1.3546,1.3534,1.3567,1.3552,1.3564,1.3571,1.3572,1.3575,1.3561,1.3585,1.3627,1.3632,1.3578,1.3578,1.3577,0,1.3361,1.3395,1.3421,1.3431,1.3454,1.3467,1.3477,1.3495,1.3508,1.3527,1.3536,1.3557,1.3568,1.3585,1.3594,1.3584,1.3627,1.3615,1.3633,1.3632,1.3641,1.364,1.3686,1.3649,1.3648,1.3648,1.3648,0,1.3393,1.3415,1.343,1.3447,1.3473,1.3481,1.3506,1.3517,1.3532,1.3551,1.3554,1.3572,1.3582,1.3601,1.3608,1.3636,1.3641,1.3646,1.3648,1.3646,1.3645,1.3653,1.3651,1.365,1.3649,1.3649,1.3649,0,1.3418,1.3429,1.3458,1.3479,1.3484,1.3503,1.352,1.3537,1.3546,1.357,1.3576,1.3591,1.3614,1.3625,1.3653,1.3658,1.3689,1.3689,1.3683,1.3684,1.3701,1.3699,1.3753,1.3761,1.3718,1.3719,1.3719,0,1.3437,1.3455,1.3478,1.3491,1.3502,1.3523,1.3537,1.3546,1.356,1.3583,1.3597,1.3621,1.364,1.3678,1.3691,1.3713,1.3714,1.3731,1.3717,1.3715,1.3715,1.3713,1.3716,1.3733,1.3734,1.3734,1.3734,0,1.3471,1.3476,1.3496,1.3519,1.3535,1.3553,1.3571,1.3581,1.3594,1.361,1.3634,1.3649,1.3679,1.3703,1.3726,1.3737,1.3738,1.3739,1.3744,1.3743,1.3739,1.3742,1.3691,1.3737,1.3737,1.3737,1.3737,1.3737,1.3495,1.3511,1.353,1.3553,1.3567,1.3584,1.3601,1.3613,1.3633,1.3658,1.3663,1.3689,1.3708,1.374,1.3752,1.3773,1.3769,1.3776,1.3778,1.378,1.3781,1.3736,1.3777,1.3777,1.3777,1.3777,1.3777,0,1.3529,1.3542,1.3563,1.3588,1.3606,1.3606,1.3626,1.3641,1.3664,1.3682,1.3701,1.373,1.3753,1.3769,1.3793,1.3807,1.3808,1.3813,1.3812,1.3815,1.3783,1.3776,1.3811,1.3811,1.3811,1.3811,1.3811,1.3811,1.3549,1.3577,1.3585,1.362,1.3633,1.3659,1.367,1.3686,1.3701,1.3733,1.3752,1.3763,1.378,1.3806,1.3828,1.3832,1.3841,1.3846,1.385,1.382,1.3817,1.3813,1.3807,1.3848,1.3848,1.388,1.388,1.388]},{"header":{"parameterUnit":"m.s-1","parameterCategory":1,"la1":30.2991,"la2":30.254,"lo1":-89.0895,"lo2":-89.0444,"dx":0.0017,"dy":0.0017,"nx":28,"ny":28,"refTime":"2023-01-20T09:00:00:Z","depth":0,"parameterNumber":3,"parameterNumberName":"V-component_of_WINDS"},"data":[0,0,0,0,0,0,0,0,0,0,0,0,0,0,0,0,0,0,0,0,0,0,0,0,0,0,0,0,0,0,0,0,0,0,0,0,0,0,0,0,0,0,0,0,0,0,0,0,0,0,0,0,0,0,0,0,0,0,-2.6621,-2.6622,0,-2.6721,-2.6722,-2.6723,-2.6725,-2.6724,-2.6723,-2.6722,-2.6824,-2.6828,-2.6831,0,0,0,0,0,0,0,0,0,0,0,0,0,-2.6436,-2.6439,-2.6621,-2.6623,-2.6624,-2.672,-2.6722,-2.6723,-2.6726,-2.6724,-2.6723,-2.6721,-2.6823,-2.6827,-2.6832,0,0,0,0,0,0,0,0,0,0,0,0,0,-2.6524,-2.644,-2.6621,-2.6637,-2.6639,-2.672,-2.6722,-2.6723,-2.6726,-2.6724,-2.6722,-2.6721,-2.6821,-2.6827,-2.6832,-2.6904,0,0,-2.685,-2.6852,0,0,0,0,0,0,0,0,-2.6519,-2.653,-2.6633,-2.6636,-2.6639,-2.6709,-2.6694,-2.6784,-2.6726,-2.6693,-2.6722,-2.672,-2.6787,-2.6795,-2.6818,-2.6909,-2.6914,-2.685,-2.6854,-2.6856,-2.6858,0,0,0,0,0,0,0,-2.6513,-2.6526,-2.6661,-2.6635,-2.6638,-2.6639,-2.665,-2.6711,-2.6749,-2.6696,-2.6696,-2.6708,-2.6788,-2.6813,-2.682,-2.6915,-2.685,-2.6855,-2.6859,-2.6861,-2.7072,-2.7074,0,0,0,0,0,0,-2.6503,-2.6521,-2.6657,-2.6664,-2.6573,-2.6644,-2.6656,-2.6688,-2.6748,-2.6756,-2.6709,-2.6708,-2.6804,-2.6814,-2.6824,-2.6913,-2.6856,-2.6862,-2.6865,-2.707,-2.7072,-2.7074,0,0,0,0,0,0,-2.6499,-2.6515,-2.6653,-2.6593,-2.661,-2.6649,-2.6685,-2.6691,-2.6715,-2.6759,-2.6766,-2.6727,-2.6803,-2.6816,-2.6885,-2.6917,-2.6864,-2.687,-2.7067,-2.707,-2.7073,-2.7091,0,0,0,0,0,0,-2.6494,-2.6514,-2.6541,-2.6593,-2.6613,-2.6712,-2.6687,-2.6694,-2.6725,-2.6724,-2.6777,-2.6784,-2.6802,-2.6876,-2.689,-2.6924,-2.6874,-2.7064,-2.7069,-2.7072,-2.7088,-2.7095,-2.7101,0,0,0,0,0,-2.6487,-2.6542,-2.6543,-2.6559,-2.6648,-2.6714,-2.6726,-2.6745,-2.6728,-2.6756,-2.6784,-2.6783,-2.6911,-2.6883,-2.6899,-2.6935,-2.7062,-2.7067,-2.7072,-2.7085,-2.7093,-2.71,0,0,0,0,0,0,-2.6493,-2.6549,-2.655,-2.6624,-2.6664,-2.6714,-2.675,-2.6753,-2.6799,-2.6796,-2.6818,-2.683,-2.6898,-2.6924,-2.6892,-2.7008,-2.6985,-2.6993,-2.6989,-2.6997,-2.7004,-2.6996,-2.6879,0,0,0,0,0,-2.6503,-2.6551,-2.6598,-2.6658,-2.6678,-2.6711,-2.674,-2.6752,-2.6794,-2.6811,-2.6844,-2.6886,-2.6936,-2.6968,-2.7016,-2.7092,-2.7104,-2.7124,-2.7131,-2.7136,-2.7142,-2.7185,-2.7195,-2.709,-2.709,-2.709,0,0,-2.6524,-2.656,-2.6589,-2.666,-2.6693,-2.6742,-2.6725,-2.6778,-2.6816,-2.6819,-2.6886,-2.6912,-2.696,-2.7033,-2.7067,-2.7056,-2.7174,-2.7142,-2.7145,-2.7149,-2.7191,-2.7201,-2.721,-2.7093,-2.7093,-2.7092,0,0,-2.6587,-2.6619,-2.6673,-2.6707,-2.6756,-2.6778,-2.6791,-2.6841,-2.6858,-2.6926,-2.693,-2.6975,-2.706,-2.7095,-2.7123,-2.7201,-2.7202,-2.7216,-2.7249,-2.729,-2.7298,-2.7306,-2.7334,-2.7344,-2.7223,-2.7223,-2.7223,0,-2.6606,-2.6681,-2.6701,-2.6754,-2.6786,-2.6792,-2.6847,-2.6879,-2.6942,-2.6963,-2.6951,-2.7058,-2.7091,-2.7172,-2.7192,-2.7214,-2.723,-2.721,-2.7295,-2.7303,-2.731,-2.7337,-2.7348,-2.7225,-2.7224,-2.7224,-2.7224,0,-2.6703,-2.6755,-2.6793,-2.6853,-2.6889,-2.6943,-2.6972,-2.7006,-2.7015,-2.7038,-2.7107,-2.7147,-2.7204,-2.7224,-2.7233,-2.7307,-2.7299,-2.7291,-2.7267,-2.7321,-2.7347,-2.7358,-2.7227,-2.7226,-2.7226,-2.7225,0,0,-2.6771,-2.6843,-2.6857,-2.6885,-2.6941,-2.6982,-2.7037,-2.7092,-2.7121,-2.7165,-2.7212,-2.7284,-2.7277,-2.731,-2.7323,-2.7359,-2.7419,-2.7347,-2.7348,-2.7359,-2.7504,-2.7509,-2.7521,-2.742,-2.7422,-2.7424,-2.75,0,-2.6841,-2.6938,-2.6958,-2.7043,-2.7091,-2.7099,-2.7147,-2.7186,-2.721,-2.7255,-2.7281,-2.7332,-2.7319,-2.7339,-2.7375,-2.7404,-2.7448,-2.7399,-2.7464,-2.7466,-2.7452,-2.7534,-2.7541,-2.761,-2.751,-2.7512,-2.7513,0,-2.6934,-2.698,-2.7069,-2.712,-2.7141,-2.7184,-2.7237,-2.728,-2.7326,-2.734,-2.7377,-2.7387,-2.7445,-2.7419,-2.75,-2.7466,-2.7494,-2.7512,-2.7516,-2.7522,-2.7492,-2.7543,-2.7633,-2.7643,-2.7529,-2.7528,-2.7526,0,-2.6975,-2.706,-2.7124,-2.7148,-2.7208,-2.7238,-2.7265,-2.7309,-2.7342,-2.7388,-2.741,-2.7463,-2.7492,-2.7533,-2.7556,-2.7535,-2.7636,-2.7612,-2.765,-2.7649,-2.767,-2.7668,-2.7765,-2.7688,-2.7688,-2.7688,-2.7688,0,-2.705,-2.7105,-2.7144,-2.7183,-2.7245,-2.7268,-2.7329,-2.7355,-2.7394,-2.744,-2.745,-2.7492,-2.7521,-2.7568,-2.7587,-2.7652,-2.7665,-2.7678,-2.7683,-2.7677,-2.7676,-2.7696,-2.7691,-2.7691,-2.769,-2.769,-2.7689,0,-2.7106,-2.7135,-2.7206,-2.7257,-2.7272,-2.7315,-2.7359,-2.7398,-2.7422,-2.748,-2.7495,-2.7533,-2.7588,-2.7616,-2.7686,-2.7699,-2.7771,-2.7773,-2.7756,-2.7758,-2.7794,-2.779,-2.7907,-2.7924,-2.7836,-2.7837,-2.7837,0,-2.7152,-2.7194,-2.7251,-2.7282,-2.7309,-2.7359,-2.7392,-2.7417,-2.7452,-2.7508,-2.7541,-2.7597,-2.7643,-2.7732,-2.7766,-2.782,-2.7822,-2.786,-2.783,-2.7824,-2.7823,-2.782,-2.7825,-2.7865,-2.7866,-2.7866,-2.7867,0,-2.7231,-2.7243,-2.729,-2.7343,-2.7383,-2.7426,-2.7468,-2.7493,-2.7525,-2.7564,-2.7621,-2.7657,-2.7728,-2.7784,-2.7841,-2.7869,-2.7873,-2.7876,-2.7888,-2.7882,-2.7871,-2.7878,-2.777,-2.7873,-2.7872,-2.7872,-2.7872,-2.7871,-2.7283,-2.7321,-2.7367,-2.742,-2.7455,-2.7494,-2.7534,-2.7563,-2.7611,-2.7671,-2.7683,-2.7744,-2.779,-2.7866,-2.7896,-2.7944,-2.7936,-2.7953,-2.7957,-2.7961,-2.7963,-2.7863,-2.7955,-2.7954,-2.7954,-2.7954,-2.7954,0,-2.7362,-2.7392,-2.7441,-2.75,-2.7542,-2.7543,-2.759,-2.7626,-2.7679,-2.7721,-2.7767,-2.7833,-2.7888,-2.7927,-2.7983,-2.8014,-2.8018,-2.8028,-2.8026,-2.8032,-2.7967,-2.7951,-2.8024,-2.8024,-2.8024,-2.8024,-2.8024,-2.8024,-2.7408,-2.7473,-2.7491,-2.7573,-2.7603,-2.7662,-2.7689,-2.7726,-2.7761,-2.7834,-2.788,-2.7905,-2.7946,-2.8005,-2.8056,-2.8066,-2.8086,-2.8096,-2.8106,-2.8044,-2.8037,-2.803,-2.8015,-2.81,-2.81,-2.8168,-2.8168,-2.8169]}]]